Погода в Атажукино

Россия / Кабардино-Балкарская Республика     43°38′48″N   43°23′48″E
темп.,
°C
ветер,
м/с
пор.,
м/с
влажн.,
%
обл.,
%
осадки,
мм/ч
давл.,
гПа
погр.,
м
4 декабря, сб
сб400:00+3з225310 0.0 101910
03:00+4з22475 0.0 102010
06:00+5юз32395 0.0 102013
09:00+7юз22365 0.0 101919
12:00+12вюв21270 0.0 1017211
15:00+11вюв23360 0.0 1016133
18:00+7ююв225010 0.0 101618
21:00+6ююз225097 0.0 101413
5 декабря, вс
вс500:00+6ю22445 0.0 101210
03:00+6юз2239100 0.0 101110
06:00+6зсз1137100 0.0 101110
09:00+7сз2239100 0.0 101213
12:00+10с2236100 0.0 1012215
15:00+9ссз1247100 0.0 101341
18:00+6всв00558 0.0 101510
21:00+6юз225413 0.0 101710
6 декабря, пн
пн600:00+6юз22511 0.0 101710
03:00+5зюз11519 0.0 101810
06:00+5зюз115353 0.0 101910
09:00+6ю11490 0.0 102010
12:00+10вюв23405 0.0 1019280
15:00+10вюв224130 0.0 1020270
18:00+6ююв11555 0.0 102210
21:00+5ю22595 0.0 102210
7 декабря, вт
вт700:00+5ю22570 0.0 102210
03:00+5ю11560 0.0 102210
06:00+4ю11580 0.0 102210
09:00+6ююв22530 0.0 102129
12:00+10вюв34440 0.0 1019254
15:00+10вюв35465 0.0 1017298
18:00+6юв22650 0.0 101712
21:00+4юв11740 0.0 101511
8 декабря, ср
ср800:00+3в118914 0.0 101411
03:00+2в119734 0.0 101347
06:00+2св119741 0.0 101155
09:00+3ссв119126 0.0 1011120
12:00+8всв10645 0.0 1008221
15:00+10с12561 0.0 1007198
18:00+6ссз11755 0.0 100810
21:00+6зсз226697 0.0 100912